Theta_e
318 314 317 320 321 322 323 323 323 322 321 322 322 323 324 327 326 339 341 344 346 347 347 345 338 336 337 344 344 343 341 341 341 337 333 335 336 334 332 333 334 335 337 338 337 336 335 333 329
318 319 318 321 323 322 322 323 322 322 322 322 322 323 324 326 331 339 344 342 344 346 348 347 344 336 335 341 344 344 341 340 339 338 334 334 336 333 333 334 335 335 335 337 335 335 334 327 327
319 321 320 324 323 322 323 323 322 322 322 321 321 323 325 329 333 340 343 341 341 344 346 347 345 340 334 335 341 344 342 340 339 340 337 334 335 333 334 336 336 335 334 335 334 333 330 327 326
320 320 320 321 321 322 322 322 322 321 322 322 321 321 325 332 330 341 341 339 339 341 344 345 345 344 336 335 337 340 340 338 338 329 322 336 334 333 335 335 334 333 333 333 332 330 328 327 325
319 321 322 322 322 322 323 321 321 320 321 323 323 321 326 331 337 338 339 338 339 340 342 343 343 342 340 337 335 337 336 337 335 331 325 325 335 332 335 334 333 333 332 331 332 327 327 326 328
320 319 320 321 322 323 321 320 321 320 321 322 324 325 326 333 335 337 338 336 337 339 340 339 341 340 339 338 337 337 335 330 328 326 325 324 332 329 332 333 332 333 332 330 328 326 326 325 327
319 320 320 321 323 323 323 320 320 321 321 321 323 324 329 333 333 337 336 335 336 336 338 339 338 338 338 338 338 334 332 328 328 325 325 324 331 330 330 332 330 332 330 329 325 324 325 325 325
319 320 320 320 322 323 323 320 320 320 320 323 324 325 327 335 336 335 335 334 335 335 336 337 337 337 336 337 335 333 331 330 330 327 325 324 330 330 332 331 331 331 329 326 323 322 322 324 323
320 320 320 320 322 322 322 319 320 320 320 320 321 323 330 336 335 334 335 334 334 334 334 335 335 336 335 335 333 332 332 331 329 328 328 327 328 329 330 329 329 327 324 322 319 320 319 320 320
320 320 320 321 322 322 321 320 319 320 320 321 321 323 328 333 332 332 333 334 335 334 334 334 334 335 335 335 333 330 331 331 329 328 330 329 328 330 329 329 328 325 321 320 317 317 317 319 316
319 321 321 321 322 321 320 319 319 319 319 321 321 321 323 332 332 332 331 332 335 336 333 332 331 332 335 334 332 330 329 328 328 328 329 325 327 327 326 329 327 320 317 317 313 315 316 313 317
320 320 320 321 321 320 320 319 319 319 320 320 321 323 323 323 328 331 331 331 331 334 332 331 328 330 331 331 332 331 330 329 329 329 327 326 327 328 330 327 324 319 318 314 310 314 316 315 318
321 320 320 320 320 319 319 319 319 319 320 321 320 320 321 322 323 325 329 330 331 333 330 328 327 329 327 329 330 330 331 330 328 328 327 327 326 329 329 327 321 319 315 311 313 318 315 315 317
321 320 320 320 320 319 319 319 320 320 321 320 319 319 319 320 323 326 330 331 332 332 329 327 327 326 327 327 328 328 328 330 332 329 327 327 328 327 328 325 320 319 319 312 318 318 317 317 318
321 321 320 320 320 320 321 321 321 321 321 321 320 319 320 321 325 329 330 332 331 330 330 326 326 325 326 326 326 326 329 328 330 330 329 327 327 326 326 324 321 321 320 318 322 320 319 318 318
320 320 321 320 320 321 321 322 322 322 322 322 321 319 321 324 327 329 330 332 330 330 329 327 325 324 326 326 325 325 327 327 327 328 329 328 328 327 326 323 323 321 322 321 320 319 318 317 318
320 322 322 322 322 322 323 322 322 322 322 319 320 320 323 326 329 330 331 331 330 329 328 325 324 324 324 324 323 324 324 325 325 326 327 325 326 324 324 324 324 323 322 322 319 317 316 316 317
320 321 322 322 321 321 322 323 321 322 322 322 322 322 323 327 329 330 331 331 329 329 327 324 323 323 323 323 322 321 322 322 321 321 321 320 322 323 322 322 323 323 322 321 319 317 316 316 316
318 318 320 320 322 322 323 324 322 322 323 322 323 323 323 325 329 331 331 330 329 329 326 323 322 323 323 321 320 319 318 317 317 317 319 318 318 317 319 319 322 320 320 319 317 317 317 315 316
316 316 317 319 321 320 322 322 322 322 323 323 322 321 324 324 328 331 332 330 330 328 325 323 323 322 323 321 320 318 317 316 316 315 314 314 314 315 316 317 317 318 316 316 315 316 316 315 315
317 318 318 320 321 321 322 322 322 322 322 323 323 322 321 325 328 332 333 331 330 328 324 323 322 323 322 321 319 318 316 315 315 315 314 313 313 313 314 315 313 314 315 312 314 315 315 314 314
316 317 318 320 322 325 321 324 324 323 323 324 324 324 322 323 328 331 333 332 330 329 325 323 323 323 322 320 319 317 316 315 315 314 314 315 315 315 315 313 314 312 315 315 313 316 315 316 315
316 317 318 321 322 322 320 323 321 322 322 323 324 323 322 325 325 332 333 332 330 329 326 323 323 324 323 321 319 317 316 316 316 316 315 314 314 315 316 318 316 317 315 318 317 320 319 318 319
317 317 318 320 321 325 322 322 322 322 324 325 323 323 325 325 326 331 333 332 331 330 326 324 323 323 323 322 320 317 317 317 317 315 315 316 314 314 314 317 318 317 317 318 319 321 321 322 321
316 318 321 324 325 327 321 322 324 323 324 324 324 324 324 325 326 329 334 333 331 331 326 325 323 322 322 323 321 318 317 317 317 315 315 315 317 316 313 314 316 319 319 321 322 321 321 322 322
316 319 320 322 330 331 326 327 323 323 323 323 323 323 324 325 328 329 334 333 332 331 328 324 324 323 323 323 322 320 318 317 317 316 316 316 316 316 314 311 314 316 320 321 321 322 323 323 322
317 318 317 320 321 325 324 326 325 324 322 323 323 323 324 326 327 327 333 334 332 332 329 325 324 323 322 322 323 322 321 318 317 317 317 317 317 317 316 314 315 320 321 322 322 322 322 323 323
314 317 319 319 321 319 319 322 325 325 324 323 324 324 324 324 325 327 330 334 332 332 329 326 324 324 323 322 322 322 322 320 319 319 317 317 316 316 316 317 317 318 320 322 322 323 323 324 324
309 310 311 312 315 319 323 324 325 326 325 325 325 326 326 326 326 327 329 334 332 332 329 326 325 324 323 323 323 323 323 321 319 320 320 318 317 316 316 316 319 320 320 321 323 324 324 325 325
313 311 311 314 317 320 321 321 320 321 323 324 324 326 326 325 327 327 329 334 333 332 330 328 326 325 324 323 323 323 323 323 322 321 321 321 319 317 316 316 317 318 321 321 321 323 324 324 324
Wind_Speed
12 9 10 14 6 7 17 20 2 7 1 5 6 5 12 12 10 3 8 7 7 7 2 4 7 9 9 14 14 16 17 17 20 21 23 24 23 24 25 24 25 26 26 26 25 23 24 23 24
9 13 13 5 8 11 11 5 7 1 11 8 2 6 7 9 9 13 12 7 7 6 4 3 5 10 9 11 16 19 20 20 22 23 26 27 25 26 25 27 27 27 27 25 25 24 23 26 26
12 11 7 6 12 13 16 7 5 6 6 4 5 7 6 2 11 6 8 6 5 5 5 5 5 7 11 12 14 18 21 22 24 25 26 28 27 28 28 30 29 27 25 25 24 26 25 28 26
8 8 6 7 16 19 22 7 7 5 7 4 9 10 7 10 4 10 7 4 4 4 5 5 7 8 12 15 17 17 19 20 18 17 27 27 31 29 30 31 29 26 26 23 23 26 29 29 28
15 6 11 16 18 22 19 1 5 6 10 4 4 11 4 9 15 15 9 4 3 4 6 4 8 10 11 12 16 21 22 24 22 16 44 29 25 27 30 31 30 28 28 23 23 27 30 30 30
8 9 12 14 20 20 2 2 1 4 10 8 4 10 8 15 15 15 9 5 3 4 5 6 7 9 10 11 15 21 22 18 18 20 15 22 16 25 21 27 29 31 29 26 22 27 28 31 30
14 11 17 20 19 19 17 10 9 7 8 11 11 12 2 13 12 14 9 6 3 3 5 5 7 9 10 12 15 18 24 15 15 16 25 21 25 26 29 26 28 31 30 25 24 25 27 31 30
12 12 20 17 16 19 13 3 5 7 9 2 3 4 3 13 13 9 8 6 4 3 5 6 7 9 10 14 16 18 18 17 18 16 21 24 27 27 33 31 29 32 28 26 26 25 27 30 30
18 13 15 21 19 19 7 2 5 4 8 11 9 7 7 16 14 11 9 5 6 4 5 5 7 11 11 12 16 15 16 21 18 16 13 21 23 30 32 29 31 31 28 26 26 26 27 30 29
17 14 22 20 19 17 13 7 10 12 16 17 13 12 14 17 13 11 11 11 14 10 7 6 7 9 14 12 13 15 16 15 13 14 21 19 10 35 33 29 31 29 27 26 26 26 27 28 27
21 20 21 23 21 21 11 15 15 14 17 13 11 11 4 14 12 11 12 12 14 16 9 7 6 11 9 16 14 18 17 16 15 21 22 17 10 32 29 34 32 29 29 28 26 26 27 29 28
24 24 24 22 20 19 20 15 16 18 16 13 11 9 7 7 6 11 12 11 10 11 9 7 6 7 12 9 12 16 14 18 21 25 27 21 24 34 31 34 30 31 28 30 30 28 22 26 23
24 24 23 22 21 20 18 19 19 18 16 15 13 15 11 7 9 15 10 9 11 16 11 9 7 7 8 11 10 11 12 20 29 29 29 27 32 37 36 31 30 29 30 31 31 20 25 23 18
24 22 22 22 21 19 23 21 18 18 16 19 17 16 16 16 11 11 11 10 9 15 13 11 8 8 9 9 11 10 12 14 24 31 32 32 38 36 35 30 29 27 27 33 24 27 25 23 15
21 22 22 21 20 19 20 22 23 18 19 21 18 15 14 14 10 11 12 13 11 9 17 12 11 9 8 7 8 12 10 13 26 28 31 36 43 44 40 35 32 30 25 28 18 24 22 21 19
16 17 19 21 21 23 23 22 21 18 21 22 17 14 12 14 10 12 13 15 13 13 17 13 10 9 9 9 8 10 12 16 20 25 31 34 41 47 44 37 33 33 27 22 27 24 22 21 20
17 19 23 22 19 22 23 20 15 17 14 5 8 12 13 8 8 12 15 15 15 14 19 16 11 11 10 7 8 11 14 19 24 28 37 37 45 45 37 39 33 32 29 23 27 22 21 20 20
20 22 24 23 19 21 25 19 15 18 17 11 10 12 13 10 13 15 15 17 15 16 20 17 13 13 10 15 16 19 21 23 25 30 39 34 44 45 36 38 31 26 27 25 24 22 19 20 20
22 24 25 22 25 22 18 14 13 14 15 14 15 15 11 10 14 20 18 18 16 21 19 17 15 16 19 24 24 23 21 25 26 26 34 37 43 40 33 29 32 25 26 26 24 21 18 20 20
24 22 27 22 28 22 20 17 16 17 19 16 15 13 15 14 13 16 21 19 17 23 20 20 18 19 23 24 21 23 25 24 31 28 26 33 37 31 26 25 26 27 24 24 26 21 22 21 18
23 24 18 23 26 25 22 24 16 19 19 19 19 15 14 14 16 18 18 20 17 23 24 24 20 21 24 24 26 27 25 24 26 26 33 36 40 34 27 23 26 26 30 26 23 23 23 19 20
22 18 20 20 20 18 21 16 17 17 17 21 24 18 13 12 13 19 18 18 20 19 26 26 23 23 28 30 29 32 31 27 24 28 28 26 28 26 25 32 32 35 30 25 29 25 25 20 19
21 13 14 19 19 22 25 14 13 16 18 17 13 13 12 8 9 19 19 23 23 21 24 27 25 24 29 33 31 30 25 22 26 23 24 27 30 31 32 33 32 33 33 30 32 25 23 19 20
15 8 14 17 14 17 22 19 14 16 18 17 11 12 16 16 12 18 21 27 25 25 26 26 26 25 29 31 33 32 29 26 24 24 23 25 29 32 28 25 28 29 30 33 31 27 22 24 24
14 12 9 5 6 12 19 16 14 17 20 12 12 8 5 14 13 14 20 18 24 28 28 26 28 27 29 32 33 34 34 32 30 34 29 31 29 28 29 22 26 26 30 28 27 23 24 25 19
17 17 9 12 7 5 16 11 14 15 11 6 3 4 4 11 12 14 20 19 23 27 29 28 29 27 30 30 33 35 34 34 32 35 30 33 31 30 31 31 26 28 27 24 23 25 24 24 23
17 19 17 17 18 4 9 18 10 13 8 6 7 13 7 6 8 11 18 19 24 28 29 31 28 29 30 32 30 33 34 34 33 34 31 32 30 30 36 37 37 30 26 25 24 25 26 27 27
17 15 14 11 16 16 12 11 9 16 13 9 7 5 5 7 13 14 15 19 26 29 29 30 29 30 31 32 32 32 33 35 34 33 35 32 33 33 33 37 35 31 29 28 28 29 29 28 29
12 17 13 11 13 10 8 1 5 10 14 9 6 9 6 7 8 14 14 20 27 28 30 31 31 30 31 32 33 30 32 35 38 33 33 37 37 37 36 38 33 34 38 31 31 32 31 31 30
17 18 17 8 12 8 11 7 12 3 12 7 6 8 5 4 9 7 14 20 23 27 29 30 32 32 33 34 32 32 32 33 36 38 37 38 37 37 37 36 40 34 33 35 36 33 30 31 31
Wind_Direction
204 229 240 255 251 231 261 253 140 59 226 88 31 329 325 327 323 38 121 111 95 111 116 144 175 175 169 185 200 197 191 184 185 178 170 160 160 153 146 143 141 138 135 131 127 125 123 124 127
213 223 237 274 242 274 269 154 111 80 60 66 276 236 249 265 56 121 132 111 97 120 136 193 179 187 171 181 201 207 200 196 194 187 177 170 168 161 153 148 147 143 138 134 128 128 128 130 128
233 254 263 229 242 248 276 41 35 42 88 263 258 189 295 17 59 87 99 104 111 113 142 199 191 208 192 186 200 210 208 201 195 190 181 176 172 165 158 151 150 145 140 135 135 133 133 131 130
219 218 248 258 261 279 286 330 68 340 271 188 270 271 173 112 114 99 125 137 137 130 137 190 202 207 207 195 201 203 205 203 208 30 354 185 173 167 165 155 151 148 142 142 140 135 138 134 132
239 264 246 257 263 259 264 154 37 315 293 183 237 269 288 121 115 127 144 150 171 171 166 213 223 207 207 214 209 205 204 205 206 236 288 310 175 168 166 158 156 151 146 149 140 141 140 138 136
223 226 258 260 262 278 114 139 211 281 280 281 196 276 293 146 144 138 147 160 182 194 200 209 219 212 195 209 210 202 198 200 241 242 213 293 167 175 175 161 158 152 152 155 147 146 144 142 144
248 252 253 264 277 295 301 172 204 228 267 284 229 238 124 151 131 136 148 159 191 210 203 212 212 220 190 203 211 213 206 234 199 187 185 229 205 183 171 173 161 160 159 157 150 152 151 147 152
238 251 262 267 276 281 287 24 144 209 257 249 322 250 303 119 129 144 149 164 202 236 227 202 206 205 200 198 200 204 221 217 205 203 208 207 197 200 181 169 169 167 160 156 154 156 154 151 153
244 247 256 259 263 270 2 51 215 195 274 285 273 227 139 149 157 170 158 179 217 240 234 210 203 208 177 183 197 194 204 213 221 208 195 181 216 220 191 170 175 168 154 153 153 156 151 152 150
234 245 250 256 274 291 315 280 253 253 221 225 228 217 182 158 172 186 193 205 207 220 210 203 195 207 201 178 183 182 182 189 193 195 182 219 256 176 176 170 169 157 149 148 153 153 150 152 150
240 239 256 272 289 307 279 287 292 228 252 267 264 280 245 157 191 211 234 240 197 199 183 194 197 201 191 205 191 190 184 183 190 170 184 184 200 173 172 160 159 149 151 150 152 147 144 151 151
250 247 252 263 278 288 287 277 271 276 276 274 285 278 276 251 219 208 228 230 230 142 168 178 200 188 195 168 184 188 188 199 185 170 169 179 158 170 156 154 148 149 148 150 146 142 150 150 154
253 250 258 267 261 269 263 270 273 269 279 288 279 281 275 247 227 259 218 235 217 148 158 182 203 194 201 198 212 212 201 201 194 188 185 184 177 169 159 151 148 147 150 152 147 152 150 157 161
266 263 263 263 265 261 273 268 264 258 261 260 247 253 255 247 216 238 199 222 193 147 162 174 190 202 201 203 200 209 214 208 197 191 189 187 184 172 168 154 150 148 151 151 151 153 158 160 162
276 275 273 266 267 266 268 267 261 265 255 251 252 245 244 246 242 199 219 185 173 183 154 163 181 178 181 193 203 208 199 210 185 192 194 187 183 180 172 154 152 157 157 154 161 155 158 157 154
259 263 260 254 253 254 247 256 257 251 254 247 233 230 237 226 217 186 205 177 176 169 149 158 175 171 168 163 183 197 201 197 201 193 197 194 175 168 158 152 156 154 163 163 156 160 161 158 158
256 254 256 256 244 261 260 252 264 256 274 283 240 218 238 190 188 196 188 170 175 176 151 160 175 163 164 176 190 197 205 195 184 187 176 166 162 159 161 156 152 158 162 156 156 161 159 162 155
240 246 247 256 259 259 266 233 232 253 258 218 230 245 243 192 186 189 184 165 171 160 150 158 169 159 156 156 156 145 157 158 154 151 153 144 148 154 146 145 148 156 157 153 156 167 158 164 159
261 271 273 278 276 256 261 283 243 261 277 261 210 218 227 232 184 169 167 155 167 145 144 161 163 161 158 144 134 127 124 127 128 128 146 143 133 140 142 145 145 148 153 153 163 168 173 164 181
243 249 261 274 280 286 284 272 263 267 268 265 255 239 211 216 183 156 149 160 176 149 154 165 167 164 162 152 148 139 132 129 134 131 123 135 140 139 148 156 154 159 156 163 169 177 174 189 192
243 249 252 255 286 285 282 270 269 266 262 259 259 249 246 206 177 157 154 167 181 150 158 165 173 168 163 147 142 137 133 132 134 142 141 148 152 154 162 170 168 169 165 184 187 186 181 180 192
250 238 258 276 272 277 273 271 255 255 246 244 226 222 230 223 179 161 159 164 177 168 160 170 173 168 165 158 153 154 152 150 152 151 155 166 175 174 168 169 177 182 196 198 192 188 189 183 185
252 225 223 253 266 268 266 261 259 271 269 263 259 197 203 197 223 162 165 162 174 180 163 168 175 168 166 168 165 161 157 151 159 164 171 173 177 176 178 189 185 189 190 195 190 189 193 195 189
268 256 213 248 236 256 259 258 254 255 255 249 227 206 190 195 196 164 160 159 171 178 168 166 174 173 168 169 174 173 167 161 163 173 179 172 173 188 189 182 183 192 194 199 196 195 199 208 203
209 231 225 242 234 254 248 248 234 245 251 277 193 183 188 177 171 162 155 161 171 166 166 175 175 178 174 175 175 179 179 173 173 180 183 182 182 189 197 188 190 199 203 203 196 200 205 219 209
211 211 208 228 229 327 300 258 243 238 247 265 151 143 199 170 163 168 162 165 172 169 169 182 180 179 176 177 182 185 185 182 182 184 186 189 194 200 200 199 202 212 213 201 202 202 204 212 218
204 213 231 271 291 237 266 301 343 280 193 197 246 209 153 155 167 175 164 165 170 171 175 179 183 179 181 184 186 186 188 191 192 193 191 192 194 198 203 204 205 211 211 208 207 209 214 219 222
241 211 219 217 253 272 258 263 232 251 215 203 183 184 206 218 196 177 171 164 168 173 174 174 187 183 184 186 189 191 189 190 195 196 198 197 204 207 208 210 209 216 220 213 213 217 218 221 225
204 240 244 265 246 252 267 303 273 7 341 182 146 66 25 329 283 167 170 162 167 169 171 176 184 189 185 189 192 192 193 191 196 195 197 204 207 210 210 215 207 221 221 218 219 220 219 223 228
212 212 227 229 245 243 251 261 298 66 271 285 90 115 105 295 293 189 165 161 166 168 172 180 185 191 191 188 192 196 198 198 200 203 201 202 205 207 212 215 221 227 220 224 227 226 226 230 235